QPF
0.02 0.02 0.02 0.03 0.04 0.03 0.02 0.01 0.01 0.01 0.02 0.02 0.02 0.02 0.02 0.02 0.02 0.03 0.01 0.01 0.00 0.00 0.01 0.01 0.01 0.00 0.00 0.00 0.01 0.02 0.02 0.02 0.02 0.02 0.03 0.03 0.02 0.02 0.03 0.04 0.04 0.04 0.03
0.02 0.03 0.03 0.03 0.02 0.02 0.02 0.01 0.01 0.00 0.01 0.01 0.02 0.02 0.02 0.02 0.03 0.03 0.02 0.01 0.01 0.01 0.01 0.01 0.01 0.00 0.00 0.00 0.00 0.01 0.02 0.02 0.02 0.02 0.02 0.03 0.02 0.01 0.02 0.03 0.03 0.03 0.02
0.02 0.02 0.01 0.02 0.02 0.02 0.02 0.02 0.01 0.01 0.01 0.01 0.02 0.02 0.03 0.03 0.03 0.04 0.04 0.03 0.02 0.02 0.01 0.01 0.01 0.00 0.00 0.00 0.00 0.01 0.01 0.01 0.02 0.02 0.02 0.02 0.02 0.01 0.01 0.01 0.02 0.02 0.02
0.03 0.03 0.03 0.02 0.02 0.03 0.03 0.02 0.01 0.01 0.01 0.01 0.01 0.01 0.01 0.01 0.02 0.04 0.04 0.03 0.03 0.02 0.01 0.01 0.01 0.01 0.01 0.01 0.01 0.01 0.02 0.01 0.01 0.02 0.02 0.01 0.01 0.01 0.01 0.01 0.01 0.01 0.02
0.02 0.03 0.03 0.03 0.03 0.03 0.03 0.02 0.01 0.01 0.03 0.03 0.01 0.01 0.01 0.01 0.01 0.01 0.02 0.03 0.04 0.03 0.02 0.01 0.01 0.01 0.01 0.01 0.01 0.01 0.03 0.02 0.01 0.01 0.02 0.01 0.00 0.00 0.01 0.02 0.01 0.01 0.01
0.02 0.03 0.03 0.03 0.02 0.02 0.02 0.03 0.02 0.01 0.02 0.02 0.01 0.01 0.01 0.01 0.01 0.01 0.00 0.01 0.02 0.02 0.02 0.01 0.01 0.01 0.01 0.01 0.01 0.01 0.01 0.02 0.01 0.01 0.01 0.00 0.01 0.01 0.01 0.01 0.02 0.02 0.02
0.02 0.03 0.03 0.02 0.01 0.02 0.01 0.02 0.02 0.02 0.02 0.01 0.01 0.01 0.01 0.00 0.01 0.01 0.01 0.01 0.01 0.02 0.02 0.03 0.03 0.02 0.03 0.03 0.02 0.02 0.01 0.02 0.01 0.01 0.01 0.01 0.01 0.01 0.01 0.01 0.01 0.02 0.02
0.03 0.03 0.03 0.02 0.01 0.01 0.01 0.02 0.03 0.04 0.03 0.02 0.03 0.02 0.02 0.01 0.01 0.01 0.00 0.00 0.01 0.01 0.03 0.04 0.04 0.04 0.03 0.04 0.04 0.03 0.04 0.04 0.04 0.03 0.02 0.02 0.02 0.02 0.01 0.01 0.01 0.01 0.01
0.02 0.02 0.01 0.01 0.01 0.01 0.01 0.02 0.04 0.05 0.04 0.04 0.04 0.04 0.03 0.02 0.01 0.01 0.01 0.00 0.00 0.01 0.02 0.03 0.03 0.03 0.03 0.03 0.03 0.04 0.05 0.06 0.05 0.03 0.02 0.02 0.01 0.01 0.01 0.01 0.01 0.01 0.02
0.01 0.02 0.01 0.01 0.01 0.01 0.01 0.02 0.04 0.05 0.05 0.05 0.05 0.05 0.05 0.04 0.03 0.02 0.01 0.01 0.01 0.01 0.01 0.02 0.02 0.02 0.02 0.02 0.01 0.01 0.02 0.02 0.02 0.01 0.01 0.01 0.01 0.01 0.01 0.00 0.01 0.01 0.01
0.02 0.02 0.02 0.02 0.02 0.02 0.02 0.02 0.03 0.05 0.05 0.05 0.04 0.03 0.04 0.05 0.04 0.03 0.02 0.02 0.01 0.01 0.01 0.02 0.02 0.02 0.02 0.01 0.00 0.00 0.01 0.01 0.01 0.01 0.01 0.01 0.01 0.02 0.02 0.01 0.01 0.01 0.01
0.02 0.02 0.03 0.03 0.04 0.03 0.03 0.04 0.05 0.05 0.05 0.05 0.05 0.04 0.04 0.05 0.04 0.04 0.04 0.04 0.03 0.03 0.02 0.02 0.02 0.01 0.01 0.01 0.01 0.01 0.01 0.01 0.01 0.01 0.01 0.01 0.01 0.01 0.01 0.01 0.01 0.01 0.01
0.01 0.01 0.02 0.03 0.03 0.03 0.03 0.04 0.04 0.04 0.04 0.06 0.06 0.05 0.05 0.05 0.05 0.04 0.05 0.05 0.05 0.05 0.04 0.03 0.02 0.01 0.00 0.00 0.01 0.01 0.01 0.00 0.00 0.01 0.01 0.01 0.00 0.00 0.00 0.00 0.00 0.00 0.01
0.01 0.01 0.01 0.01 0.02 0.02 0.02 0.02 0.02 0.03 0.04 0.05 0.06 0.07 0.06 0.07 0.07 0.07 0.06 0.05 0.06 0.05 0.06 0.05 0.04 0.03 0.02 0.01 0.01 0.01 0.01 0.01 0.00 0.00 0.00 0.01 0.01 0.01 0.00 0.00 0.00 0.01 0.01
0.01 0.01 0.01 0.01 0.01 0.02 0.03 0.03 0.02 0.02 0.03 0.04 0.04 0.04 0.04 0.04 0.04 0.04 0.06 0.06 0.05 0.05 0.04 0.04 0.04 0.04 0.03 0.02 0.01 0.01 0.01 0.01 0.01 0.01 0.01 0.01 0.01 0.01 0.01 0.01 0.01 0.01 0.00
0.01 0.01 0.01 0.01 0.01 0.02 0.02 0.03 0.03 0.02 0.02 0.02 0.02 0.02 0.03 0.03 0.02 0.03 0.04 0.03 0.03 0.04 0.03 0.03 0.02 0.03 0.03 0.02 0.02 0.02 0.01 0.02 0.02 0.02 0.02 0.02 0.02 0.01 0.01 0.01 0.01 0.01 0.01
0.00 0.00 0.01 0.01 0.01 0.02 0.02 0.02 0.02 0.02 0.02 0.03 0.04 0.03 0.02 0.02 0.03 0.03 0.02 0.02 0.02 0.03 0.03 0.02 0.02 0.02 0.03 0.04 0.04 0.04 0.03 0.03 0.03 0.03 0.03 0.02 0.02 0.01 0.01 0.01 0.01 0.01 0.01
0.00 0.00 0.00 0.01 0.01 0.01 0.01 0.01 0.01 0.02 0.02 0.03 0.05 0.04 0.02 0.02 0.03 0.03 0.02 0.02 0.03 0.03 0.03 0.04 0.04 0.05 0.06 0.07 0.07 0.07 0.07 0.07 0.06 0.04 0.03 0.03 0.02 0.01 0.01 0.01 0.01 0.01 0.01
0.00 0.00 0.00 0.00 0.00 0.01 0.01 0.02 0.02 0.02 0.03 0.05 0.05 0.04 0.03 0.03 0.04 0.03 0.04 0.03 0.03 0.02 0.02 0.03 0.03 0.03 0.03 0.04 0.04 0.04 0.05 0.05 0.05 0.04 0.04 0.03 0.02 0.02 0.02 0.01 0.01 0.01 0.01
0.00 0.00 0.00 0.00 0.01 0.01 0.01 0.02 0.03 0.04 0.04 0.05 0.05 0.03 0.04 0.04 0.05 0.05 0.05 0.04 0.03 0.02 0.02 0.02 0.02 0.02 0.02 0.02 0.02 0.02 0.02 0.03 0.03 0.02 0.02 0.03 0.03 0.03 0.02 0.02 0.02 0.01 0.01
0.00 0.00 0.00 0.00 0.01 0.01 0.01 0.02 0.03 0.04 0.05 0.04 0.04 0.03 0.02 0.03 0.03 0.04 0.03 0.03 0.04 0.03 0.02 0.02 0.02 0.02 0.02 0.02 0.02 0.02 0.02 0.02 0.01 0.01 0.01 0.01 0.02 0.03 0.03 0.02 0.02 0.02 0.02
0.01 0.00 0.00 0.00 0.00 0.01 0.01 0.02 0.02 0.03 0.03 0.05 0.05 0.03 0.02 0.03 0.04 0.05 0.05 0.04 0.04 0.04 0.03 0.03 0.02 0.02 0.02 0.02 0.02 0.02 0.02 0.02 0.01 0.01 0.01 0.01 0.01 0.01 0.01 0.02 0.01 0.02 0.02
0.03 0.01 0.00 0.00 0.00 0.01 0.01 0.02 0.02 0.02 0.02 0.02 0.03 0.04 0.03 0.03 0.03 0.03 0.03 0.04 0.04 0.04 0.04 0.04 0.03 0.02 0.02 0.02 0.03 0.04 0.03 0.02 0.01 0.01 0.01 0.01 0.01 0.01 0.01 0.01 0.01 0.01 0.01
0.01 0.01 0.01 0.01 0.01 0.01 0.01 0.02 0.02 0.02 0.01 0.01 0.02 0.03 0.03 0.03 0.03 0.04 0.04 0.04 0.03 0.03 0.03 0.03 0.03 0.03 0.03 0.03 0.04 0.05 0.05 0.03 0.02 0.02 0.01 0.01 0.01 0.00 0.00 0.01 0.01 0.01 0.01
0.00 0.01 0.01 0.02 0.02 0.02 0.02 0.02 0.02 0.02 0.02 0.01 0.01 0.02 0.03 0.03 0.04 0.05 0.04 0.04 0.04 0.04 0.04 0.04 0.04 0.05 0.05 0.05 0.05 0.05 0.04 0.02 0.02 0.01 0.01 0.01 0.00 0.00 0.00 0.00 0.00 0.01 0.01
0.01 0.02 0.01 0.01 0.02 0.02 0.01 0.01 0.01 0.01 0.02 0.02 0.01 0.02 0.02 0.03 0.04 0.05 0.06 0.06 0.06 0.06 0.07 0.06 0.06 0.05 0.05 0.05 0.04 0.04 0.03 0.03 0.02 0.01 0.01 0.00 0.01 0.00 0.00 0.00 0.00 0.00 0.00
MSLP
1015.29 1015.30 1015.24 1015.13 1014.99 1014.84 1014.73 1014.69 1014.74 1014.90 1015.13 1015.42 1015.72 1015.99 1016.21 1016.36 1016.45 1016.50 1016.55 1016.63 1016.77 1017.00 1017.31 1017.70 1018.14 1018.60 1019.06 1019.50 1019.91 1020.29 1020.65 1020.98 1021.30 1021.60 1021.87 1022.09 1022.24 1022.32 1022.31 1022.20 1022.03 1021.79 1021.52
1015.10 1015.19 1015.20 1015.14 1015.02 1014.88 1014.76 1014.72 1014.79 1014.97 1015.24 1015.57 1015.92 1016.23 1016.48 1016.64 1016.72 1016.76 1016.79 1016.85 1016.98 1017.20 1017.52 1017.91 1018.34 1018.79 1019.23 1019.63 1020.00 1020.34 1020.65 1020.97 1021.30 1021.64 1021.98 1022.30 1022.56 1022.76 1022.85 1022.84 1022.72 1022.51 1022.25
1014.71 1014.90 1015.01 1015.02 1014.95 1014.85 1014.75 1014.73 1014.81 1015.01 1015.31 1015.68 1016.07 1016.43 1016.71 1016.90 1017.00 1017.05 1017.07 1017.13 1017.25 1017.46 1017.76 1018.14 1018.55 1018.97 1019.37 1019.72 1020.03 1020.31 1020.58 1020.87 1021.20 1021.56 1021.96 1022.36 1022.73 1023.03 1023.23 1023.30 1023.26 1023.10 1022.86
1014.13 1014.45 1014.68 1014.79 1014.80 1014.74 1014.68 1014.68 1014.78 1014.99 1015.32 1015.73 1016.15 1016.55 1016.88 1017.11 1017.24 1017.30 1017.34 1017.41 1017.53 1017.74 1018.02 1018.38 1018.76 1019.14 1019.48 1019.77 1020.02 1020.24 1020.46 1020.72 1021.04 1021.42 1021.85 1022.31 1022.75 1023.13 1023.41 1023.57 1023.59 1023.49 1023.28
1013.45 1013.90 1014.25 1014.47 1014.57 1014.58 1014.56 1014.58 1014.69 1014.92 1015.26 1015.68 1016.13 1016.57 1016.94 1017.21 1017.39 1017.49 1017.56 1017.65 1017.79 1017.99 1018.27 1018.59 1018.94 1019.28 1019.57 1019.81 1020.01 1020.18 1020.36 1020.59 1020.88 1021.25 1021.69 1022.17 1022.65 1023.08 1023.41 1023.62 1023.70 1023.65 1023.49
1012.75 1013.32 1013.79 1014.12 1014.31 1014.39 1014.41 1014.45 1014.56 1014.79 1015.12 1015.55 1016.02 1016.48 1016.88 1017.20 1017.43 1017.59 1017.70 1017.82 1017.98 1018.19 1018.46 1018.77 1019.10 1019.40 1019.65 1019.86 1020.01 1020.14 1020.29 1020.48 1020.75 1021.09 1021.51 1021.98 1022.45 1022.89 1023.24 1023.48 1023.59 1023.58 1023.47
1012.10 1012.78 1013.35 1013.79 1014.06 1014.19 1014.25 1014.31 1014.42 1014.63 1014.95 1015.36 1015.83 1016.30 1016.74 1017.10 1017.37 1017.58 1017.75 1017.91 1018.10 1018.32 1018.60 1018.90 1019.20 1019.48 1019.72 1019.90 1020.03 1020.15 1020.27 1020.43 1020.66 1020.97 1021.34 1021.76 1022.20 1022.60 1022.93 1023.17 1023.30 1023.33 1023.26
1011.57 1012.32 1012.99 1013.50 1013.83 1014.02 1014.11 1014.18 1014.28 1014.47 1014.77 1015.16 1015.61 1016.09 1016.53 1016.92 1017.24 1017.50 1017.71 1017.91 1018.13 1018.38 1018.66 1018.96 1019.26 1019.53 1019.76 1019.94 1020.07 1020.18 1020.29 1020.43 1020.63 1020.88 1021.20 1021.56 1021.92 1022.27 1022.56 1022.78 1022.91 1022.95 1022.92
1011.18 1011.98 1012.70 1013.26 1013.65 1013.88 1014.00 1014.07 1014.17 1014.34 1014.61 1014.97 1015.41 1015.87 1016.31 1016.72 1017.07 1017.36 1017.61 1017.85 1018.10 1018.36 1018.66 1018.96 1019.26 1019.54 1019.78 1019.97 1020.11 1020.23 1020.34 1020.47 1020.64 1020.85 1021.10 1021.39 1021.68 1021.95 1022.19 1022.37 1022.49 1022.54 1022.55
1010.91 1011.73 1012.47 1013.07 1013.49 1013.75 1013.90 1013.99 1014.09 1014.25 1014.50 1014.84 1015.24 1015.68 1016.12 1016.53 1016.89 1017.20 1017.48 1017.74 1018.01 1018.29 1018.59 1018.91 1019.21 1019.50 1019.75 1019.96 1020.13 1020.27 1020.39 1020.52 1020.67 1020.85 1021.05 1021.27 1021.49 1021.69 1021.87 1022.02 1022.12 1022.19 1022.22
1010.73 1011.54 1012.27 1012.88 1013.32 1013.61 1013.79 1013.90 1014.03 1014.19 1014.44 1014.76 1015.14 1015.55 1015.97 1016.36 1016.71 1017.03 1017.32 1017.60 1017.88 1018.17 1018.48 1018.80 1019.11 1019.41 1019.67 1019.91 1020.10 1020.27 1020.42 1020.56 1020.71 1020.87 1021.03 1021.20 1021.37 1021.52 1021.66 1021.77 1021.86 1021.94 1022.00
1010.59 1011.35 1012.06 1012.65 1013.10 1013.42 1013.63 1013.79 1013.95 1014.15 1014.40 1014.71 1015.07 1015.46 1015.85 1016.22 1016.56 1016.87 1017.15 1017.43 1017.72 1018.01 1018.32 1018.64 1018.96 1019.26 1019.54 1019.79 1020.01 1020.21 1020.38 1020.55 1020.71 1020.86 1021.01 1021.16 1021.30 1021.42 1021.52 1021.62 1021.71 1021.79 1021.87
1010.43 1011.13 1011.79 1012.35 1012.80 1013.15 1013.41 1013.62 1013.83 1014.07 1014.35 1014.66 1015.02 1015.38 1015.74 1016.08 1016.40 1016.70 1016.98 1017.25 1017.54 1017.83 1018.14 1018.45 1018.77 1019.07 1019.35 1019.61 1019.85 1020.06 1020.26 1020.45 1020.62 1020.79 1020.95 1021.09 1021.22 1021.33 1021.43 1021.52 1021.61 1021.70 1021.81
1010.21 1010.84 1011.43 1011.96 1012.41 1012.78 1013.10 1013.38 1013.65 1013.94 1014.25 1014.59 1014.94 1015.29 1015.63 1015.94 1016.24 1016.52 1016.79 1017.06 1017.34 1017.63 1017.93 1018.24 1018.54 1018.83 1019.11 1019.36 1019.60 1019.82 1020.03 1020.23 1020.43 1020.62 1020.79 1020.95 1021.08 1021.20 1021.30 1021.39 1021.49 1021.60 1021.71
1009.91 1010.46 1010.99 1011.49 1011.93 1012.33 1012.70 1013.04 1013.39 1013.74 1014.09 1014.45 1014.81 1015.15 1015.47 1015.77 1016.05 1016.31 1016.58 1016.85 1017.13 1017.42 1017.71 1018.01 1018.29 1018.56 1018.81 1019.05 1019.27 1019.48 1019.70 1019.91 1020.12 1020.32 1020.51 1020.68 1020.83 1020.96 1021.08 1021.18 1021.29 1021.40 1021.53
1009.54 1010.01 1010.48 1010.94 1011.38 1011.81 1012.22 1012.63 1013.04 1013.45 1013.85 1014.24 1014.61 1014.95 1015.26 1015.55 1015.82 1016.08 1016.35 1016.62 1016.91 1017.20 1017.49 1017.76 1018.02 1018.26 1018.48 1018.68 1018.88 1019.07 1019.26 1019.47 1019.68 1019.89 1020.10 1020.29 1020.46 1020.61 1020.73 1020.84 1020.95 1021.07 1021.19
1009.08 1009.49 1009.91 1010.35 1010.79 1011.23 1011.69 1012.16 1012.63 1013.09 1013.53 1013.94 1014.32 1014.67 1014.98 1015.27 1015.54 1015.81 1016.09 1016.38 1016.67 1016.97 1017.25 1017.51 1017.74 1017.95 1018.12 1018.28 1018.43 1018.59 1018.76 1018.95 1019.16 1019.37 1019.59 1019.79 1019.97 1020.13 1020.26 1020.37 1020.48 1020.59 1020.71
1008.55 1008.92 1009.31 1009.73 1010.17 1010.64 1011.13 1011.64 1012.15 1012.65 1013.12 1013.55 1013.95 1014.30 1014.62 1014.92 1015.21 1015.50 1015.80 1016.11 1016.41 1016.71 1016.99 1017.23 1017.43 1017.60 1017.73 1017.84 1017.95 1018.07 1018.21 1018.38 1018.58 1018.79 1019.01 1019.22 1019.40 1019.57 1019.70 1019.81 1019.91 1020.00 1020.11
1007.98 1008.33 1008.70 1009.11 1009.56 1010.04 1010.56 1011.09 1011.63 1012.14 1012.63 1013.08 1013.48 1013.84 1014.18 1014.50 1014.81 1015.13 1015.45 1015.78 1016.10 1016.40 1016.67 1016.90 1017.07 1017.20 1017.30 1017.37 1017.44 1017.53 1017.65 1017.80 1017.99 1018.20 1018.42 1018.63 1018.82 1018.99 1019.12 1019.22 1019.30 1019.38 1019.47
1007.37 1007.72 1008.10 1008.51 1008.96 1009.46 1009.98 1010.52 1011.06 1011.58 1012.07 1012.51 1012.92 1013.30 1013.65 1013.99 1014.32 1014.67 1015.02 1015.37 1015.70 1016.01 1016.27 1016.47 1016.62 1016.72 1016.79 1016.83 1016.88 1016.96 1017.07 1017.22 1017.41 1017.62 1017.85 1018.07 1018.27 1018.43 1018.56 1018.65 1018.72 1018.79 1018.86
1006.76 1007.12 1007.51 1007.93 1008.39 1008.88 1009.40 1009.93 1010.45 1010.95 1011.43 1011.87 1012.27 1012.65 1013.01 1013.37 1013.74 1014.11 1014.48 1014.84 1015.18 1015.48 1015.73 1015.92 1016.05 1016.13 1016.18 1016.21 1016.26 1016.34 1016.46 1016.62 1016.83 1017.07 1017.31 1017.55 1017.75 1017.92 1018.05 1018.13 1018.19 1018.24 1018.30
1006.17 1006.55 1006.95 1007.38 1007.83 1008.32 1008.81 1009.31 1009.80 1010.27 1010.72 1011.14 1011.53 1011.91 1012.28 1012.66 1013.04 1013.43 1013.81 1014.18 1014.51 1014.80 1015.03 1015.20 1015.31 1015.39 1015.43 1015.48 1015.54 1015.64 1015.79 1015.99 1016.24 1016.50 1016.77 1017.03 1017.25 1017.43 1017.55 1017.64 1017.69 1017.73 1017.77
1005.61 1006.01 1006.42 1006.85 1007.30 1007.76 1008.22 1008.68 1009.12 1009.55 1009.95 1010.34 1010.72 1011.09 1011.47 1011.85 1012.24 1012.63 1013.02 1013.37 1013.69 1013.96 1014.17 1014.32 1014.42 1014.49 1014.54 1014.61 1014.71 1014.85 1015.04 1015.29 1015.58 1015.88 1016.18 1016.46 1016.70 1016.89 1017.02 1017.11 1017.16 1017.19 1017.23
1005.10 1005.51 1005.92 1006.34 1006.77 1007.20 1007.62 1008.02 1008.41 1008.79 1009.15 1009.51 1009.86 1010.22 1010.59 1010.98 1011.37 1011.75 1012.12 1012.46 1012.75 1012.99 1013.17 1013.30 1013.38 1013.45 1013.52 1013.62 1013.75 1013.94 1014.19 1014.48 1014.81 1015.15 1015.48 1015.78 1016.03 1016.23 1016.37 1016.46 1016.51 1016.55 1016.59
1004.65 1005.05 1005.45 1005.86 1006.26 1006.64 1007.02 1007.37 1007.71 1008.03 1008.35 1008.67 1009.01 1009.35 1009.72 1010.10 1010.47 1010.84 1011.19 1011.49 1011.75 1011.94 1012.09 1012.19 1012.26 1012.33 1012.42 1012.54 1012.71 1012.94 1013.23 1013.56 1013.92 1014.29 1014.63 1014.94 1015.19 1015.39 1015.53 1015.62 1015.68 1015.73 1015.78
1004.25 1004.63 1005.01 1005.39 1005.76 1006.11 1006.43 1006.74 1007.03 1007.31 1007.60 1007.90 1008.21 1008.55 1008.90 1009.27 1009.63 1009.97 1010.28 1010.55 1010.75 1010.91 1011.02 1011.09 1011.14 1011.20 1011.29 1011.43 1011.63 1011.88 1012.20 1012.55 1012.92 1013.28 1013.63 1013.92 1014.16 1014.34 1014.47 1014.56 1014.63 1014.68 1014.75
Thickness
5711 5712 5712 5712 5710 5708 5706 5704 5701 5699 5697 5694 5691 5688 5687 5687 5687 5687 5687 5686 5685 5684 5683 5681 5680 5679 5678 5677 5676 5674 5671 5669 5669 5667 5664 5664 5664 5663 5663 5663 5663 5663 5664
5707 5708 5708 5708 5707 5705 5704 5701 5699 5697 5695 5693 5690 5688 5686 5685 5685 5684 5683 5683 5682 5681 5680 5679 5677 5676 5674 5673 5672 5671 5668 5666 5665 5663 5659 5655 5655 5656 5657 5657 5657 5656 5657
5705 5706 5705 5705 5704 5703 5702 5701 5697 5695 5693 5691 5688 5686 5683 5681 5680 5679 5679 5679 5679 5678 5677 5676 5675 5674 5672 5670 5669 5668 5666 5662 5661 5660 5657 5651 5647 5647 5649 5650 5650 5651 5651
5706 5705 5704 5703 5702 5702 5701 5699 5696 5694 5691 5689 5687 5683 5679 5677 5677 5677 5676 5676 5676 5675 5675 5674 5672 5671 5670 5668 5667 5665 5664 5661 5658 5656 5654 5652 5648 5644 5642 5644 5645 5645 5646
5704 5704 5704 5703 5702 5701 5699 5697 5695 5692 5690 5688 5685 5682 5679 5677 5676 5675 5674 5673 5673 5673 5672 5671 5670 5669 5667 5666 5664 5662 5661 5659 5657 5654 5651 5648 5644 5642 5639 5638 5639 5640 5641
5703 5703 5703 5701 5700 5699 5697 5695 5692 5690 5688 5686 5684 5681 5678 5675 5673 5672 5671 5670 5670 5670 5670 5669 5668 5667 5665 5664 5662 5661 5659 5657 5655 5652 5650 5647 5644 5640 5638 5635 5634 5634 5636
5700 5699 5698 5698 5697 5696 5694 5693 5691 5688 5686 5683 5681 5679 5677 5675 5673 5671 5669 5668 5667 5667 5667 5667 5666 5665 5664 5662 5661 5658 5657 5655 5653 5651 5649 5647 5644 5642 5639 5635 5632 5630 5631
5697 5697 5697 5696 5695 5694 5693 5691 5689 5686 5684 5681 5679 5678 5676 5674 5672 5671 5670 5668 5668 5667 5667 5665 5664 5663 5662 5660 5658 5657 5655 5653 5652 5650 5648 5645 5643 5641 5639 5636 5632 5628 5626
5693 5694 5694 5694 5692 5691 5690 5689 5687 5685 5682 5680 5678 5676 5674 5672 5671 5670 5669 5668 5667 5667 5666 5665 5663 5661 5660 5658 5656 5654 5653 5651 5650 5648 5646 5644 5642 5640 5638 5636 5634 5630 5625
5688 5689 5689 5689 5689 5688 5687 5685 5684 5683 5681 5678 5676 5674 5672 5671 5670 5668 5667 5666 5666 5666 5664 5663 5661 5659 5658 5656 5654 5652 5651 5649 5647 5646 5644 5642 5640 5638 5637 5635 5632 5630 5627
5684 5684 5684 5684 5684 5684 5682 5681 5679 5678 5676 5675 5673 5672 5670 5669 5667 5666 5665 5665 5664 5663 5662 5661 5659 5657 5656 5654 5652 5651 5649 5647 5645 5644 5642 5640 5638 5636 5634 5632 5629 5627 5625
5680 5680 5679 5678 5678 5677 5677 5676 5675 5674 5673 5673 5671 5669 5668 5666 5665 5664 5663 5663 5662 5661 5660 5658 5656 5655 5653 5652 5650 5648 5646 5644 5642 5641 5639 5637 5636 5633 5631 5629 5627 5625 5623
5674 5674 5672 5672 5671 5670 5670 5671 5670 5669 5669 5668 5666 5665 5664 5663 5662 5661 5661 5660 5659 5657 5656 5654 5653 5652 5650 5649 5647 5645 5644 5642 5641 5639 5637 5635 5633 5631 5628 5626 5624 5622 5621
5667 5667 5665 5665 5665 5665 5665 5665 5665 5665 5664 5662 5661 5660 5659 5659 5659 5658 5657 5657 5655 5654 5652 5651 5650 5648 5647 5646 5644 5642 5641 5639 5638 5637 5635 5633 5631 5630 5627 5625 5622 5619 5616
5660 5660 5659 5658 5658 5658 5658 5658 5658 5658 5658 5656 5655 5654 5654 5654 5654 5653 5653 5652 5651 5650 5649 5647 5646 5644 5643 5643 5641 5639 5638 5636 5634 5633 5632 5631 5630 5629 5626 5624 5620 5617 5613
5653 5653 5653 5652 5652 5652 5652 5652 5652 5652 5651 5650 5649 5649 5648 5648 5647 5647 5647 5647 5646 5645 5643 5642 5641 5639 5640 5640 5638 5636 5633 5632 5630 5629 5627 5627 5626 5625 5624 5622 5620 5617 5613
5647 5646 5646 5646 5646 5646 5646 5645 5645 5645 5644 5644 5643 5643 5642 5641 5641 5641 5640 5639 5639 5638 5637 5636 5635 5634 5634 5634 5633 5632 5629 5627 5625 5624 5622 5622 5622 5621 5619 5617 5616 5614 5612
5640 5639 5639 5639 5640 5640 5639 5639 5638 5637 5636 5635 5635 5634 5634 5633 5633 5632 5632 5632 5631 5631 5630 5629 5628 5628 5628 5628 5627 5626 5623 5621 5620 5619 5618 5616 5616 5615 5614 5611 5609 5607 5607
5633 5633 5632 5632 5631 5631 5631 5630 5630 5629 5628 5627 5626 5626 5626 5625 5624 5624 5624 5624 5623 5623 5622 5622 5621 5620 5621 5621 5621 5619 5616 5614 5613 5612 5612 5611 5610 5611 5609 5605 5602 5600 5600
5626 5626 5625 5624 5623 5622 5622 5621 5620 5619 5618 5619 5619 5619 5618 5617 5617 5616 5616 5616 5616 5615 5614 5613 5613 5613 5613 5613 5613 5611 5609 5606 5606 5605 5605 5605 5604 5604 5603 5600 5598 5595 5595
5618 5617 5616 5614 5614 5613 5612 5611 5610 5610 5611 5611 5611 5610 5610 5609 5609 5609 5609 5609 5608 5607 5606 5605 5605 5605 5605 5605 5604 5603 5601 5599 5598 5598 5597 5598 5598 5598 5597 5595 5593 5592 5591
5608 5608 5606 5605 5604 5604 5603 5601 5601 5602 5602 5602 5601 5601 5600 5600 5600 5599 5599 5599 5599 5598 5597 5596 5596 5597 5597 5597 5596 5596 5595 5594 5592 5591 5591 5591 5591 5591 5589 5588 5587 5586 5583
5599 5598 5596 5595 5595 5594 5594 5592 5593 5593 5593 5592 5591 5591 5590 5590 5590 5590 5589 5589 5589 5588 5588 5587 5587 5588 5588 5588 5589 5589 5588 5588 5586 5585 5585 5584 5583 5582 5580 5580 5578 5576 5574
5590 5588 5587 5585 5585 5585 5585 5584 5585 5584 5583 5582 5581 5581 5581 5580 5581 5581 5580 5580 5579 5578 5579 5579 5579 5579 5579 5579 5579 5579 5579 5578 5577 5576 5576 5575 5574 5572 5571 5570 5568 5566 5565
5581 5579 5577 5576 5576 5576 5576 5576 5575 5575 5573 5572 5571 5571 5571 5571 5571 5571 5571 5571 5571 5571 5571 5572 5572 5572 5571 5573 5572 5571 5570 5569 5568 5566 5564 5563 5561 5560 5559 5558 5557 5556 5555
5571 5570 5569 5568 5568 5568 5567 5567 5567 5566 5564 5563 5562 5561 5561 5561 5560 5560 5560 5561 5562 5563 5564 5564 5564 5565 5565 5565 5564 5564 5563 5562 5560 5556 5554 5553 5552 5551 5550 5549 5547 5546 5545